ITUPSAT1

Last updated on Wed Aug 26 2026 00:04:02 GMT+0000 (Coordinated Universal Time)

1 35935U 09051E 26237.22786161 .00000631 00000+0 14006-3 0 9996 2 35935 98.3967 144.9052 0008270 32.8637 327.3076 14.60527291898819
UTC large
Height (km)
Speed (km/s)
/
Latitude / Longitude
Inclination (degrees)
Orbital Period (minutes)
Azimuth
Elevation
Range (km)
Doppler Factor

Next 0 passes for location: London (51.5072 / 0.1276)

No passes found over London.
ITUPSAT1